User: anonymous   Login
Location: Andrest
(43.3200°N, 0.0641°E)
Time: 22:23:51
(UTC+00:00)
Language:

Meteor 1-5 Rocket - Orbit

View from above orbital plane
View from above orbital plane
View from above satellite
View from above satellite

Ground track
Ground track

The orbit data is extracted from the following two-line orbital elements,

1 04420U 70047B   21058.51601616 -.00000123  00000-0 -71209-4 0  9991
2 04420  81.2274  91.2817 0087486   7.4889 352.7565 14.12092926608792
Epoch (UTC): 27 February 2021 12:23:03
Eccentricity: 0.0087486
inclination: 81.2274°
perigee height: 789 km
apogee height: 915 km
right ascension of ascending node: 91.2817°
argument of perigee: 7.4889°
revolutions per day: 14.12092926
mean anomaly at epoch: 352.7565°
orbit number at epoch: 60879

The dashed part of the orbit path shows where the satellite is in the earth's shadow,  

DLR